Location: Beddau
(51.5575°N, 3.3561°W)
Time: 17:59:17
(UTC+00:00)

Cosmos 1943 Rocket - Pass Details

Date: 03 March 2021
Orbit: 811 x 844 km, 71.0° (Epoch: 13 April)

Event Time Altitude Azimuth Distance (km) Brightness Sun altitude
Rises 18:56:21 0° 321° (NW) 3,414 6.0 -9.9°
Reaches altitude 10° 19:00:45 10° 353° (N) 2,478 4.8 -10.6°
Maximum altitude 19:02:45 12° 14° (NNE) 2,353 4.4 -10.9°
Drops below altitude 10° 19:04:45 10° 35° (NE) 2,476 4.3 -11.2°
Enters shadow 19:06:45 - 52° (NE) 2,816 4.5 -11.5°
